Time,TemperatureF,DewpointF,PressureIn,WindDirection,WindDirectionDegrees,WindSpeedMPH,WindSpeedGustMPH,Humidity,HourlyPrecipIn,Conditions,Clouds,dailyrainin,SoftwareType,DateUTC
2013-08-26 00:23:00,80.0,71.0,30.16,SE,133,0.0,-999.0,73,-99.99,,,-99.99,,2013-08-26 05:23:00,
2013-08-26 00:52:00,80.0,70.0,30.16,ESE,112,0.0,-999.0,72,-99.99,,,-99.99,,2013-08-26 05:52:00,
2013-08-26 01:21:00,80.0,69.0,30.16,SSE,157,0.0,-999.0,70,-99.99,,,-99.99,,2013-08-26 06:21:00,
2013-08-26 01:52:00,79.0,69.0,30.15,SE,144,0.0,-999.0,71,-99.99,,,-99.99,,2013-08-26 06:52:00,
2013-08-26 02:22:00,78.0,69.0,30.15,SE,144,0.0,-999.0,74,-99.99,,,-99.99,,2013-08-26 07:22:00,
2013-08-26 02:52:00,77.0,69.0,30.15,SSE,168,0.0,-999.0,77,-99.99,,,-99.99,,2013-08-26 07:52:00,
2013-08-26 03:22:00,76.0,69.0,30.15,SSE,148,0.0,-999.0,79,-99.99,,,-99.99,,2013-08-26 08:22:00,
2013-08-26 03:52:00,76.0,69.0,30.15,SSE,148,0.0,-999.0,80,-99.99,,,-99.99,,2013-08-26 08:52:00,
2013-08-26 04:21:00,76.0,70.0,30.16,South,188,0.0,-999.0,81,-99.99,,,-99.99,,2013-08-26 09:21:00,
2013-08-26 04:54:00,75.0,69.0,30.15,South,175,0.0,-999.0,83,-99.99,,,-99.99,,2013-08-26 09:54:00,
2013-08-26 05:23:00,74.0,69.0,30.16,South,176,0.0,-999.0,84,-99.99,,,-99.99,,2013-08-26 10:23:00,
2013-08-26 05:52:00,74.0,69.0,30.16,South,175,0.0,-999.0,84,-99.99,,,-99.99,,2013-08-26 10:52:00,
2013-08-26 06:22:00,73.0,68.0,30.16,South,175,0.0,-999.0,85,-99.99,,,-99.99,,2013-08-26 11:22:00,
2013-08-26 06:52:00,73.0,68.0,30.16,South,175,0.0,-999.0,85,-99.99,,,-99.99,,2013-08-26 11:52:00,
2013-08-26 07:21:00,73.0,69.0,30.17,South,176,0.0,-999.0,86,-99.99,,,-99.99,,2013-08-26 12:21:00,
2013-08-26 07:52:00,74.0,69.0,30.18,SSE,150,0.0,-999.0,84,-99.99,,,-99.99,,2013-08-26 12:52:00,
2013-08-26 08:21:00,76.0,69.0,30.18,SE,144,0.0,-999.0,79,-99.99,,,-99.99,,2013-08-26 13:21:00,
2013-08-26 08:52:00,78.0,69.0,30.19,SSE,165,0.0,-999.0,75,-99.99,,,-99.99,,2013-08-26 13:52:00,
2013-08-26 09:22:00,79.0,70.0,30.19,SE,141,0.0,-999.0,73,-99.99,,,-99.99,,2013-08-26 14:22:00,
2013-08-26 09:52:00,81.0,69.0,30.19,South,185,0.0,-999.0,68,-99.99,,,-99.99,,2013-08-26 14:52:00,
2013-08-26 10:22:00,83.0,70.0,30.19,ESE,113,0.0,-999.0,64,-99.99,,,-99.99,,2013-08-26 15:22:00,
2013-08-26 10:59:00,85.0,70.0,30.20,SSW,200,0.0,-999.0,62,-99.99,,,-99.99,,2013-08-26 15:59:00,
2013-08-26 11:29:00,87.0,70.0,30.21,SE,141,0.0,-999.0,58,-99.99,,,-99.99,,2013-08-26 16:29:00,
2013-08-26 11:59:00,87.0,69.0,30.21,South,182,1.0,-999.0,55,-99.99,,,-99.99,,2013-08-26 16:59:00,
2013-08-26 12:24:00,88.0,69.0,30.20,SSE,148,0.0,-999.0,54,-99.99,,,-99.99,,2013-08-26 17:24:00,
2013-08-26 12:36:00,88.0,69.0,30.20,SSE,148,0.0,-999.0,54,-99.99,,,-99.99,,2013-08-26 17:36:00,
2013-08-26 12:53:00,88.0,69.0,30.20,SSE,148,0.0,-999.0,54,-99.99,,,-99.99,,2013-08-26 17:53:00,
2013-08-26 13:01:00,88.0,69.0,30.20,SSE,148,0.0,-999.0,54,-99.99,,,-99.99,,2013-08-26 18:01:00,
2013-08-26 13:22:00,90.0,69.0,30.19,SSE,168,1.0,-999.0,50,-99.99,,,-99.99,,2013-08-26 18:22:00,
2013-08-26 13:32:00,90.0,69.0,30.19,SSE,168,1.0,-999.0,50,-99.99,,,-99.99,,2013-08-26 18:32:00,
2013-08-26 13:52:00,91.0,70.0,30.18,South,175,0.0,-999.0,51,-99.99,,,-99.99,,2013-08-26 18:52:00,
2013-08-26 14:01:00,91.0,70.0,30.18,South,175,0.0,-999.0,51,-99.99,,,-99.99,,2013-08-26 19:01:00,
2013-08-26 14:22:00,91.0,69.0,30.17,SW,223,0.0,-999.0,49,-99.99,,,-99.99,,2013-08-26 19:22:00,
2013-08-26 14:52:00,92.0,69.0,30.16,SSE,155,0.0,-999.0,48,-99.99,,,-99.99,,2013-08-26 19:52:00,
2013-08-26 15:22:00,91.0,69.0,30.14,East,100,1.0,-999.0,48,-99.99,,,-99.99,,2013-08-26 20:22:00,
2013-08-26 15:52:00,92.0,69.0,30.13,South,179,1.0,-999.0,48,-99.99,,,-99.99,,2013-08-26 20:52:00,
2013-08-26 16:22:00,92.0,69.0,30.12,South,188,0.0,-999.0,47,-99.99,,,-99.99,,2013-08-26 21:22:00,
2013-08-26 16:55:00,91.0,68.0,30.11,SSE,160,1.0,-999.0,47,-99.99,,,-99.99,,2013-08-26 21:55:00,
2013-08-26 17:26:00,92.0,68.0,30.10,SE,130,0.0,-999.0,46,-99.99,,,-99.99,,2013-08-26 22:26:00,
2013-08-26 17:53:00,91.0,67.0,30.10,South,184,1.0,-999.0,46,-99.99,,,-99.99,,2013-08-26 22:53:00,
2013-08-26 18:22:00,91.0,67.0,30.10,South,175,0.0,-999.0,46,-99.99,,,-99.99,,2013-08-26 23:22:00,
2013-08-26 18:52:00,90.0,69.0,30.09,SSW,196,1.0,-999.0,50,-99.99,,,-99.99,,2013-08-26 23:52:00,
2013-08-26 19:21:00,89.0,69.0,30.09,SSE,165,0.0,-999.0,52,-99.99,,,-99.99,,2013-08-27 00:21:00,
2013-08-26 19:52:00,87.0,69.0,30.08,South,172,0.0,-999.0,55,-99.99,,,-99.99,,2013-08-27 00:52:00,
2013-08-26 20:22:00,85.0,69.0,30.09,South,172,0.0,-999.0,59,-99.99,,,-99.99,,2013-08-27 01:22:00,
2013-08-26 20:52:00,83.0,69.0,30.09,South,172,0.0,-999.0,63,-99.99,,,-99.99,,2013-08-27 01:52:00,
2013-08-26 21:21:00,82.0,69.0,30.10,South,172,0.0,-999.0,66,-99.99,,,-99.99,,2013-08-27 02:21:00,
2013-08-26 21:52:00,81.0,69.0,30.11,South,172,0.0,-999.0,67,-99.99,,,-99.99,,2013-08-27 02:52:00,
2013-08-26 22:22:00,81.0,69.0,30.11,SSE,147,0.0,-999.0,66,-99.99,,,-99.99,,2013-08-27 03:22:00,
2013-08-26 22:58:00,81.0,69.0,30.10,SSE,147,0.0,-999.0,66,-99.99,,,-99.99,,2013-08-27 03:58:00,
2013-08-26 23:18:00,80.0,67.0,30.10,SSE,147,0.0,-999.0,65,-99.99,,,-99.99,,2013-08-27 04:18:00,
2013-08-26 23:29:00,80.0,67.0,30.10,SE,145,0.0,-999.0,65,-99.99,,,-99.99,,2013-08-27 04:29:00,
2013-08-26 23:54:00,79.0,67.0,30.10,SE,145,0.0,-999.0,66,-99.99,,,-99.99,,2013-08-27 04:54:00,